When you browse on this site, cookies collect data to enhance your experience and personalize the content and advertising you see.
Visit our Privacy Policy to learn more. By continuing to use the site, you agree to this use of cookies and data.
  • In France
  • List of Countries
  • For 7 days
  • Water Temperature
  • Satellite Maps
  • Weather Map
  • Weather Widgets
  • user-avatar
    Login

    Hourly Weather Angamacutiro de la Union

    Today, 19 July, Friday

    Time Temperature Precipitation Wind Pressure Humidity
    00:00 +15°C° 0 mm 0 mps 624 mmHg 95%
    01:00 +15°C° 0 mm 0 mps 624 mmHg 94%
    02:00 +15°C° 0 mm 0 mps 623 mmHg 94%
    03:00 +15°C° 0 mm 0 mps 623 mmHg 94%
    04:00 +15°C° 0 mm 0 mps 623 mmHg 94%
    05:00 +14°C° 0 mm 0 mps 623 mmHg 94%
    06:00 +16°C° 0 mm 0 mps 624 mmHg 90%
    07:00 +17°C° 0 mm 0 mps 625 mmHg 87%
    08:00 +18°C° 0 mm 0 mps 626 mmHg 84%
    09:00 +21°C° 0.2 mm 0 mps 626 mmHg 73%
    10:00 +24°C° 0.2 mm 0 mps 627 mmHg 63%
    11:00 +29°C° 0.2 mm 1 mps 628 mmHg 52%
    12:00 +29°C° 0.8 mm 1 mps 627 mmHg 53%
    13:00 +28°C° 0.8 mm 1 mps 626 mmHg 54%
    14:00 +28°C° 0.8 mm 1 mps 625 mmHg 54%
    15:00 +26°C° 0.9 mm 1 mps 624 mmHg 63%
    16:00 +24°C° 0.9 mm 1 mps 624 mmHg 71%
    17:00 +21°C° 0.9 mm 2 mps 623 mmHg 80%
    18:00 +20°C° 2.6 mm 2 mps 623 mmHg 85%
    19:00 +18°C° 2.6 mm 2 mps 623 mmHg 90%
    20:00 +18°C° 2.6 mm 1 mps 623 mmHg 95%
    21:00 +18°C° 2 mm 1 mps 624 mmHg 96%
    22:00 +18°C° 2 mm 1 mps 624 mmHg 96%
    23:00 +16°C° 2 mm 0 mps 624 mmHg 96%

    Tomorrow, 20 July, Saturday

    Time Temperature Precipitation Wind Pressure Humidity
    00:00 +16°C° 0.6 mm 0 mps 624 mmHg 96%
    01:00 +16°C° 0.6 mm 0 mps 624 mmHg 97%
    02:00 +16°C° 0.6 mm 0 mps 623 mmHg 97%
    03:00 +16°C° 0.1 mm 0 mps 623 mmHg 97%
    04:00 +16°C° 0.1 mm 0 mps 623 mmHg 97%
    05:00 +16°C° 0.1 mm 0 mps 623 mmHg 97%
    06:00 +16°C° 0.1 mm 0 mps 624 mmHg 96%
    07:00 +16°C° 0.1 mm 0 mps 624 mmHg 95%
    08:00 +17°C° 0.1 mm 0 mps 625 mmHg 94%
    09:00 +18°C° 0 mm 0 mps 625 mmHg 89%
    10:00 +21°C° 0 mm 1 mps 625 mmHg 84%
    11:00 +22°C° 0 mm 1 mps 625 mmHg 79%
    12:00 +23°C° 0.8 mm 1 mps 625 mmHg 77%
    13:00 +23°C° 0.8 mm 1 mps 624 mmHg 76%
    14:00 +24°C° 0.8 mm 1 mps 624 mmHg 74%
    15:00 +23°C° 1 mm 1 mps 623 mmHg 79%
    16:00 +20°C° 1 mm 0 mps 623 mmHg 84%
    17:00 +19°C° 1 mm 0 mps 622 mmHg 89%
    18:00 +18°C° 0.5 mm 0 mps 623 mmHg 90%
    19:00 +18°C° 0.5 mm 0 mps 623 mmHg 90%
    20:00 +17°C° 0.5 mm 0 mps 624 mmHg 91%
    21:00 +17°C° 0.2 mm 0 mps 624 mmHg 92%
    22:00 +16°C° 0.2 mm 0 mps 624 mmHg 93%
    23:00 +16°C° 0.2 mm 0 mps 624 mmHg 93%

    Day after tomorrow, 21 July, Sunday

    Time Temperature Precipitation Wind Pressure Humidity
    00:00 +16°C° 0.1 mm 0 mps 624 mmHg 94%
    01:00 +16°C° 0.1 mm 0 mps 623 mmHg 94%
    02:00 +15°C° 0.1 mm 0 mps 623 mmHg 94%
    03:00 +15°C° 0 mm 0 mps 623 mmHg 94%
    04:00 +15°C° 0 mm 0 mps 623 mmHg 94%
    05:00 +15°C° 0 mm 0 mps 623 mmHg 94%
    06:00 +16°C° 0 mm 0 mps 624 mmHg 90%
    07:00 +18°C° 0 mm 0 mps 625 mmHg 87%
    08:00 +19°C° 0 mm 0 mps 626 mmHg 83%
    09:00 +23°C° 0.4 mm 1 mps 626 mmHg 75%
    10:00 +24°C° 0.4 mm 1 mps 627 mmHg 68%
    11:00 +26°C° 0.4 mm 1 mps 627 mmHg 60%
    12:00 +26°C° 0.7 mm 1 mps 627 mmHg 62%
    13:00 +25°C° 0.7 mm 1 mps 626 mmHg 64%
    14:00 +25°C° 0.7 mm 1 mps 626 mmHg 66%
    15:00 +23°C° 0.9 mm 1 mps 625 mmHg 75%
    16:00 +21°C° 0.9 mm 1 mps 624 mmHg 84%
    17:00 +20°C° 0.9 mm 1 mps 623 mmHg 92%
    18:00 +19°C° 1 mm 1 mps 624 mmHg 94%
    19:00 +19°C° 1 mm 1 mps 624 mmHg 95%
    20:00 +18°C° 1 mm 1 mps 625 mmHg 96%
    21:00 +16°C° 0.4 mm 0 mps 625 mmHg 96%
    22:00 +16°C° 0.4 mm 0 mps 625 mmHg 96%
    23:00 +16°C° 0.4 mm 0 mps 625 mmHg 95%

    22 July, Monday

    Time Temperature Precipitation Wind Pressure Humidity
    00:00 +16°C° 0 mm 0 mps 625 mmHg 95%
    01:00 +15°C° 0 mm 0 mps 624 mmHg 95%
    02:00 +15°C° 0 mm 0 mps 624 mmHg 95%
    03:00 +15°C° 0 mm 0 mps 624 mmHg 95%
    04:00 +15°C° 0 mm 0 mps 624 mmHg 95%
    05:00 +15°C° 0 mm 0 mps 624 mmHg 95%
    06:00 +17°C° 0.1 mm 0 mps 625 mmHg 90%
    07:00 +18°C° 0.1 mm 0 mps 626 mmHg 86%
    08:00 +20°C° 0.1 mm 0 mps 627 mmHg 81%
    09:00 +21°C° 1.3 mm 0 mps 627 mmHg 78%
    10:00 +24°C° 1.3 mm 1 mps 627 mmHg 76%
    11:00 +25°C° 1.3 mm 1 mps 627 mmHg 74%
    12:00 +25°C° 1.8 mm 1 mps 626 mmHg 73%
    13:00 +25°C° 1.8 mm 1 mps 625 mmHg 72%
    14:00 +26°C° 1.8 mm 1 mps 625 mmHg 72%
    15:00 +25°C° 0.8 mm 1 mps 624 mmHg 75%
    16:00 +22°C° 0.8 mm 0 mps 624 mmHg 77%
    17:00 +21°C° 0.8 mm 0 mps 623 mmHg 80%
    18:00 +20°C° 0.4 mm 0 mps 624 mmHg 83%
    19:00 +19°C° 0.4 mm 0 mps 624 mmHg 85%
    20:00 +19°C° 0.4 mm 1 mps 624 mmHg 88%
    21:00 +17°C° 0.7 mm 0 mps 624 mmHg 89%
    22:00 +17°C° 0.7 mm 0 mps 624 mmHg 90%
    23:00 +17°C° 0.7 mm 0 mps 625 mmHg 91%

    23 July, Tuesday

    Time Temperature Precipitation Wind Pressure Humidity
    00:00 +17°C° 0.7 mm 0 mps 624 mmHg 92%
    01:00 +16°C° 0.7 mm 0 mps 624 mmHg 93%
    02:00 +16°C° 0.7 mm 0 mps 624 mmHg 94%
    03:00 +16°C° 0.5 mm 0 mps 624 mmHg 94%
    04:00 +16°C° 0.5 mm 0 mps 624 mmHg 95%
    05:00 +16°C° 0.5 mm 0 mps 624 mmHg 95%
    06:00 +17°C° 0.1 mm 0 mps 625 mmHg 91%
    07:00 +18°C° 0.1 mm 0 mps 626 mmHg 88%
    08:00 +22°C° 0.1 mm 1 mps 627 mmHg 84%
    09:00 +23°C° 0.9 mm 1 mps 627 mmHg 80%
    10:00 +24°C° 0.9 mm 1 mps 627 mmHg 76%
    11:00 +25°C° 0.9 mm 1 mps 627 mmHg 72%
    12:00 +25°C° 1.8 mm 1 mps 626 mmHg 73%
    13:00 +25°C° 1.8 mm 1 mps 625 mmHg 73%
    14:00 +25°C° 1.8 mm 1 mps 625 mmHg 74%
    15:00 +25°C° 1.2 mm 1 mps 624 mmHg 75%
    16:00 +25°C° 1.2 mm 1 mps 624 mmHg 76%
    17:00 +24°C° 1.2 mm 1 mps 624 mmHg 77%
    18:00 +23°C° 0.2 mm 1 mps 624 mmHg 80%
    19:00 +19°C° 0.3 mm 0 mps 624 mmHg 84%
    20:00 +17°C° 0.3 mm 0 mps 624 mmHg 87%
    21:00 +17°C° 0.1 mm 0 mps 624 mmHg 88%
    22:00 +16°C° 0.1 mm 0 mps 624 mmHg 89%
    23:00 +16°C° 0.1 mm 0 mps 624 mmHg 91%

    24 July, Wednesday

    Time Temperature Precipitation Wind Pressure Humidity
    00:00 +16°C° 0 mm 1 mps 624 mmHg 92%
    01:00 +16°C° 0 mm 1 mps 623 mmHg 93%
    02:00 +15°C° 0 mm 1 mps 623 mmHg 94%
    03:00 +15°C° 0 mm 1 mps 623 mmHg 94%
    04:00 +14°C° 0 mm 0 mps 623 mmHg 95%
    05:00 +13°C° 0 mm 0 mps 623 mmHg 96%
    06:00 +15°C° 0 mm 0 mps 624 mmHg 91%
    07:00 +19°C° 0 mm 1 mps 625 mmHg 86%
    08:00 +21°C° 0 mm 1 mps 626 mmHg 82%
    09:00 +23°C° 0.1 mm 1 mps 626 mmHg 73%
    10:00 +25°C° 0.1 mm 1 mps 627 mmHg 64%
    11:00 +28°C° 0.1 mm 1 mps 627 mmHg 55%
    12:00 +28°C° 0.7 mm 1 mps 626 mmHg 55%
    13:00 +28°C° 0.7 mm 1 mps 626 mmHg 56%
    14:00 +28°C° 0.7 mm 1 mps 625 mmHg 57%
    15:00 +27°C° 0.9 mm 1 mps 625 mmHg 61%
    16:00 +26°C° 0.9 mm 1 mps 624 mmHg 66%
    17:00 +23°C° 0.9 mm 0 mps 624 mmHg 70%
    18:00 +23°C° 1.4 mm 1 mps 624 mmHg 76%
    19:00 +21°C° 1.4 mm 1 mps 624 mmHg 83%
    20:00 +19°C° 1.4 mm 1 mps 623 mmHg 89%
    21:00 +19°C° 1.1 mm 1 mps 624 mmHg 90%
    22:00 +18°C° 1.1 mm 1 mps 624 mmHg 92%
    23:00 +18°C° 1.1 mm 1 mps 624 mmHg 94%
    Show more